Regional Weather Roundup
Issued by NWS

Home | Current Version | Previous Version | Graphics & Text | Print | Product List | Glossary On
Versions: 1 2 3 4 5 6 7 8 9 10 11 12 13 14 15 16 17 18 19 20 21 22 23 24 25 26 27 28 29 30 31 32 33 34 35 36 37 38 39 40 41 42 43 44 45 46 47 48 49 50
000
ASUS43 KTOP 031408
RWRKS

WEATHER ROUNDUP FOR KANSAS
NATIONAL WEATHER SERVICE GOODLAND KS
900 AM CDT FRI JUL 03 2015

NOTE:  "FAIR" INDICATES FEW OR NO CLOUDS BELOW 12,000 FEET WITH NO
SIGNIFICANT WEATHER AND/OR OBSTRUCTIONS TO VISIBILITY.

KSZ001>006-013>018-027>032-041>047-031500-
NORTHWEST KANSAS

CITY           SKY/WX    TMP DP  RH WIND       PRES   REMARKS
GOODLAND       MOSUNNY   72  61  68 N5        30.11S
HAYS           PTSUNNY   66  57  72 NE9       30.05S
HILL CITY      CLOUDY    68  63  84 NE8       30.07R HAZE
RUSSELL        CLOUDY    66  64  93 N10       30.02R
$$

KSZ061>065-074>080-084>089-031500-
SOUTHWEST KANSAS

CITY           SKY/WX    TMP DP  RH WIND       PRES   REMARKS
DODGE CITY     PTSUNNY   75  62  64 NE7       30.05R
ELKHART          N/A     72  60  66 NW2         N/A
GARDEN CITY    MOSUNNY   73  64  73 E9        30.06R
GREAT BEND     SUNNY     70  63  78 N15       30.04R
LIBERAL        MOSUNNY   73  64  73 CALM      30.09R
PRATT          SUNNY     73  63  68 N9        30.02S
$$

KSZ066>073-081>083-090>101-031500-
SOUTHEAST KANSAS

CITY           SKY/WX    TMP DP  RH WIND       PRES   REMARKS
CHANUTE        CLOUDY    73  71  93 VRB5      29.93R
COFFEYVILLE    SUNNY     76  70  82 CALM      29.92R
HUTCHINSON     CLOUDY    68  64  87 N14G24    29.98R
MEDICINE LODGE   N/A     78  63  59 N10       29.97R
NEWTON         MOSUNNY   70  63  78 N13       29.98S
PARSONS        PTSUNNY   77  72  84 CALM      29.93R
WICHITA INTL   MOSUNNY   73  66  78 N17       29.95R
WICHITA JABRA  MOSUNNY   70  66  87 NW16      29.96R
WICHITA MCCONL SUNNY     73  66  80 N15       29.95R
WINFIELD       SUNNY     77  70  79 NW9       29.95R
$$

KSZ007>012-019>026-033>040-048>060-102>105-031500-
NORTHEAST KANSAS

CITY           SKY/WX    TMP DP  RH WIND       PRES   REMARKS
CONCORDIA      CLOUDY    69  65  86 NE8       30.01R FOG
EMPORIA        CLOUDY    71  68  90 NW6       29.94R
LAWRENCE       CLOUDY    67  64  90 NE6       29.96R
MANHATTAN      LGT RAIN  67  65  93 NE9       29.97R
MARYSVILLE     CLOUDY    68  63  83 CALM      30.00R
OLATHE IND     CLOUDY    67  64  90 NE7       29.96R
OLATHE EXE     CLOUDY    66  64  93 NE5       29.94S
SALINA         CLOUDY    71  66  84 N12       29.98R
TOPEKA BILLARD LGT RAIN  66  65  96 NE8       29.96R
TOPEKA FORBES  LGT RAIN  68  65  90 NE10      29.95R FOG
$$


USA.gov is the U.S. government's official web portal to all federal, state and local government web resources and services.